This is the latest recevied weather packets stored in our database for station/object W9KHP-1. If no packets are shown the sender has not sent any weather packets the latest 10 day(s).
| Time | Temp. | Humidity | Pressure | Rain* | Wind** | Luminosity | Snow |
|---|---|---|---|---|---|---|---|
| 1777897772 | 13.89° C | 79% | 1013.5 hPa | 0 mm | - | 60 W/m² | - |
| 1777897468 | 13.89° C | 78% | 1013.5 hPa | 0 mm | - | 53 W/m² | - |
| 1777897165 | 13.89° C | 78% | 1013.5 hPa | 0 mm | - | 55 W/m² | - |
| 1777896861 | 13.89° C | 78% | 1013.6 hPa | 0 mm | - | 55 W/m² | - |
| 1777896559 | 13.89° C | 77% | 1013.8 hPa | 0 mm | - | 52 W/m² | - |
| 1777896255 | 13.89° C | 77% | 1014 hPa | 0 mm | - | 47 W/m² | - |
| 1777895954 | 13.89° C | 76% | 1013.9 hPa | 0 mm | - | 44 W/m² | - |
| 1777895651 | 13.33° C | 78% | 1013.9 hPa | 0 mm | - | 41 W/m² | - |
| 1777895348 | 13.89° C | 78% | 1013.9 hPa | 0 mm | - | 42 W/m² | - |
| 1777895046 | 13.33° C | 77% | 1014 hPa | 0 mm | - | 36 W/m² | - |
| 1777894738 | 13.33° C | 78% | 1014 hPa | 0 mm | - | 30 W/m² | - |
| 1777894434 | 13.33° C | 78% | 1013.6 hPa | 0 mm | - | 26 W/m² | - |
| 1777894132 | 13.33° C | 78% | 1013.5 hPa | 0 mm | - | 20 W/m² | - |
| 1777893828 | 13.33° C | 78% | 1013.7 hPa | 0 mm | - | 14 W/m² | - |
| 1777893525 | 12.78° C | 79% | 1013.8 hPa | 0 mm | - | 11 W/m² | - |
| 1777893221 | 12.78° C | 81% | 1013.7 hPa | 0 mm | - | 8 W/m² | - |
| 1777892918 | 12.78° C | 83% | 1013.7 hPa | 0 mm | - | 6 W/m² | - |
| 1777892615 | 12.78° C | 83% | 1013.8 hPa | 0 mm | - | 4 W/m² | - |
| 1777892310 | 12.78° C | 81% | 1014 hPa | 0 mm | - | 3 W/m² | - |
| 1777892007 | 13.33° C | 79% | 1014.1 hPa | 0 mm | - | 1 W/m² | - |
| 1777891704 | 13.33° C | 79% | 1014.1 hPa | 0 mm | - | 1 W/m² | - |
| 1777891401 | 13.33° C | 77% | 1014.3 hPa | 0 mm | - | 0 W/m² | - |
| 1777891096 | 13.89° C | 75% | 1014.2 hPa | 0 mm | - | 0 W/m² | - |
| 1777890796 | 13.89° C | 75% | 1014.1 hPa | 0 mm | - | 0 W/m² | - |
| 1777890493 | 13.89° C | 74% | 1013.8 hPa | 0 mm | - | 0 W/m² | - |
* Rain latest hour (hover to see other rain measurements)
** Current wind speed in m/s (hover to see current wind gust speed)